User: anonymous   Login
Location: Vancouver
(49.2500°N, 123.1330°W)
Time: 10:12:56
(UTC-07:00)
Language:

Iridium 35 - Orbit

View from above orbital plane
View from above orbital plane
View from above satellite
View from above satellite

Ground track
Ground track

The orbit data is extracted from the following two-line orbital elements,

1 24966U 97056B   16274.94517354 -.00000003  00000-0 -81572-5 0  9995
2 24966  86.3937  67.0716 0001972  89.2586 270.8836 14.34213692995371
Epoch (UTC): 30 September 2016 22:41:02
Eccentricity: 0.0001972
inclination: 86.3937°
perigee height: 776 km
apogee height: 779 km
right ascension of ascending node: 67.0716°
argument of perigee: 89.2586°
revolutions per day: 14.34213692
mean anomaly at epoch: 270.8836°
orbit number at epoch: 99537

The dashed part of the orbit path shows where the satellite is in the earth's shadow,  

DLR